Regional Weather Roundup
Issued by NWS

Home | Current Version | Previous Version | Graphics & Text | Print | Product List | Glossary On
Versions: 1 2 3 4 5 6 7 8 9 10 11 12 13 14 15 16 17 18 19 20 21 22 23 24 25 26 27 28 29 30 31 32 33 34 35 36 37 38 39 40 41 42 43 44 45 46 47 48 49 50
000
ASUS43 KLOT 220506
RWRIL

ILLINOIS REGIONAL WEATHER ROUNDUP
NATIONAL WEATHER SERVICE CHICAGO/ROMEOVILLE IL
1200 AM CDT WED OCT 22 2014

NOTE: "FAIR" INDICATES FEW OR NO CLOUDS BELOW 12,000 FEET WITH NO
SIGNIFICANT WEATHER AND/OR OBSTRUCTIONS TO VISIBILITY.

* THESE STATIONS ARE NOT UNDER NWS QUALITY CONTROL. THEY ALSO MAY NOT
  REPORT WEATHER SUCH AS PRECIPITATION OR FOG.

ILZ001-002-007-009-015-016-024-220600-
NORTHWEST ILLINOIS

CITY           SKY/WX    TMP DP  RH WIND       PRES   REMARKS
MOLINE         CLEAR     38  35  89 E6        30.26S WCI  33
STERLING*      CLEAR     37  32  81 E6        30.27S WCI  33
SAVANNA*       CLEAR     38  34  87 NE5       30.27S WCI  34
$$

ILZ003-004-008-010-011-017-018-220600-
NORTH CENTRAL ILLINOIS

CITY           SKY/WX    TMP DP  RH WIND       PRES   REMARKS
ROCKFORD       CLEAR     38  34  85 CALM      30.29S
FREEPORT*      CLEAR     32  30  94 CALM      30.30S
ROCHELLE*      CLEAR     35  34  94 CALM      30.28S
DE KALB*       CLEAR     37  34  90 NE6       30.27S WCI  32
PERU*          CLEAR     40  36  84 NE3       30.27S
$$

ILZ005-006-012>014-019>023-220600-
NORTHEAST ILLINOIS

CITY           SKY/WX    TMP DP  RH WIND       PRES   REMARKS
CHICAGO-OHARE  MOCLDY    49  37  63 E8        30.25S
CHICAGO-MIDWAY MOCLDY    51  39  63 NE8       30.25S
AURORA         MOCLDY    35  31  85 CALM      30.27S
LANSING*       CLEAR     44  37  77 CALM      30.25S
JOLIET*        CLOUDY    42  38  83 N3        30.25F
WAUKEGAN       MOCLDY    42  38  85 N3        30.25F
DUPAGE AIRPORT CLOUDY    41  36  82 NW3       30.25F
KANKAKEE*      CLEAR     44  39  83 NE3       30.26S
WHEELING       CLOUDY    50  37  61 E3        30.26F
MORRIS*        PTCLDY    42  38  87 CALM      30.25S
ROMEOVILLE*    CLOUDY    44  37  78 N3        30.25F
NORTHERLY ISL    N/A     50  40  68 NE12        N/A
$$

LMZ740>746-220600-
SOUTHERN LAKE MICHIGAN

STATION/POSITION SKY/WX   TEMP    WIND        PRES    VSBY  WAVE
                          AIR SEA DIR/SP/G                  HT/PER
                          (F)     (DEG/KT/KT) (MB)    (MI)  (FT/S)
SOUTHERN BUOY              50 54   50/ 14/ 16 1024.7F         5/ 7
WAUKEGAN HARBOR            49      80/  9/ 13   N/A
HARRISON CRIB              50      30/ 11/ 13   N/A
BURNHAM HARBOR             50      30/  8/ 12   N/A
CALUMET HARBOR             51      40/  7/  9 1022.9S
MICHIGAN CITY              44     110/  5/  5   N/A
$$

ILZ025>027-034>036-040-047-049-050-058-095>099-220600-
WEST-CENTRAL ILLINOIS

CITY           SKY/WX    TMP DP  RH WIND       PRES   REMARKS
QUINCY         CLEAR     47  39  74 E9        30.21S
GALESBURG*     CLEAR     42  38  86 E8        30.24S
MACOMB*        CLEAR     39  37  92 E6        30.26R
JACKSONVILLE*  CLEAR     41  38  90 E6        30.23S
PITTSFIELD*    CLEAR     46  40  78 E5        30.23F
$$

ILZ028>032-037-038-041>044-048-051>054-059>061-220600-
CENTRAL ILLINOIS

CITY           SKY/WX    TMP DP  RH WIND       PRES   REMARKS
PONTIAC        MOCLDY    40  36  86 NE5       30.26S
BLOOMINGTON    CLEAR     39  37  92 NE5       30.25F
DECATUR        CLEAR     40  37  89 N5        30.24S
PEORIA         CLEAR     45  37  73 NE7       30.25F
LACON*         CLEAR     38  34  87 CALM      30.25F
LINCOLN*       CLEAR     40  38  93 CALM      30.24S
SPRINGFIELD    CLEAR     44  39  82 E5        30.24S
TAYLORVILLE    CLEAR     43  37  81 E6        30.23F
$$

ILZ033-039-045-046-055>057-062-063-220600-
EAST-CENTRAL ILLINOIS

CITY           SKY/WX    TMP DP  RH WIND       PRES   REMARKS
CHAMPAIGN      CLOUDY    49  40  71 NE9       30.23F
DANVILLE*      CLEAR     42  38  86 NE6       30.22S
RANTOUL*       CLOUDY    50  39  64 NE7       30.25S
MATTOON        CLEAR     42  39  89 NE5       30.22F
PARIS*         CLEAR     44  40  87 CALM      30.24S
$$

ILZ079-100>102-220600-
SOUTHWEST ILLINOIS

CITY           SKY/WX    TMP DP  RH WIND       PRES   REMARKS
ALTON          CLEAR     47  40  76 E5        30.22S
BELLEVILLE     CLEAR     47  42  81 NE6       30.21R
CAHOKIA*       CLEAR     50  41  71 E8        30.21R
SPARTA*        CLEAR     47  41  78 NE7       30.21S
$$

ILZ064>066-069>071-074>076-080>082-084>086-088>090-092>094-220600-
SOUTH-CENTRAL ILLINOIS

CITY           SKY/WX    TMP DP  RH WIND       PRES   REMARKS
CARBONDALE     CLEAR     44  40  85 NE3       30.19S
CAIRO*         CLEAR     52  44  72 NE5       30.18R
EFFINGHAM*     CLEAR     46  39  78 NE3       30.22S
MARION         CLEAR     46  41  81 NE3       30.19F
MT. VERNON     CLEAR     46  37  71 NE6       30.21S
CENTRALIA*     CLEAR     46  40  79 NE3       30.21S
SALEM*         CLEAR     48  44  87 NE6       30.22S
METROPOLIS*    CLEAR     49  43  79 NE3       30.17S
$$

ILZ067-068-072-073-078-083-087-091-220600-
SOUTHEAST ILLINOIS

CITY           SKY/WX    TMP DP  RH WIND       PRES   REMARKS
LAWRENCEVILLE  CLEAR     48  43  82 N13       30.21S
FAIRFIELD*     CLEAR     45  41  87 N5        30.20S
HARRISBURG*    CLEAR     47  41  81 N7        30.21R
ROBINSON*      CLEAR     47  44  89 N6        30.23S
CARMI*         CLEAR     45  41  86 NE3       30.20S
$$

ABBREVIATIONS USED IN REMARKS
   TC - TEMPERATURE IN CELSIUS
  WCI - WIND CHILL INDEX
   HX - HEAT INDEX
  VSB - VISIBILITY
$$




USA.gov is the U.S. government's official web portal to all federal, state and local government web resources and services.